Tracking 19476 objects as of 18-Jan-2019
HD Live streaming from Space Station
objects crossing your sky now

COSMOS 2222

Track COSMOS 2222 now!
COSMOS 2222 is classified as:


NORAD ID: 22238
Int'l Code: 1992-081A
Perigee: 867.2 km
Apogee: 39,482.1 km
Inclination: 63.2 °
Period: 717.4 minutes
Semi major axis: 26545 km
RCS: 13.6381 m2 (large)
Launch date: November 25, 1992
Source: Commonwealth of Independent States (former USSR) (CIS)
Launch site: PLESETSK MISSILE AND SPACE COMPLEX (PKMTR)
aabbcc
Your satellite tracking list
Your tracking list is empty




NASA's NSSDC Master Catalog

Two Line Element Set (TLE):
1 22238U 92081A   19015.76971436 -.00001652  00000-0 -17815-1 0  9995
2 22238  63.2272 112.9888 7273285 198.3493 106.8571  2.00730201191508
Source of the keplerian elements: AFSPC